EJU72FL LPPR-LPFR

Flight info

Callsign EJU72FL
Flight time N/A
Altitude 35000
Route MANIK DCT INBOM DCT ALAGU
Aircraft A20N/M-SDE2E3FGHIRWXY/LB1

Departure

Time 2026-05-06 16:59
Airport Francisco de Sá Carneiro Airport (LPPR)

Arrival

Time N/A
Airport Faro - Gago Coutinho International Airport (LPFR)
Time Latitude Longitude Altitude Speed Heading
2026-05-06 16:33 41.23919 -8.67313 242 ft 0 kts 124°
2026-05-06 16:49 41.23926 -8.67327 242 ft 2 kts 124°
2026-05-06 16:50 41.23935 -8.67343 242 ft 2 kts 124°
2026-05-06 16:50 41.23943 -8.67360 242 ft 2 kts 124°
2026-05-06 16:50 41.23951 -8.67376 242 ft 2 kts 123°
2026-05-06 16:50 41.23960 -8.67393 242 ft 2 kts 123°
2026-05-06 16:51 41.23968 -8.67409 242 ft 2 kts 131°
2026-05-06 16:51 41.23979 -8.67423 242 ft 2 kts 162°
2026-05-06 16:51 41.23989 -8.67425 242 ft 0 kts 207°
2026-05-06 16:54 41.23985 -8.67427 242 ft 2 kts 207°
2026-05-06 16:54 41.23979 -8.67431 242 ft 2 kts 207°
2026-05-06 16:54 41.23943 -8.67457 239 ft 10 kts 208°
2026-05-06 16:55 41.23872 -8.67486 237 ft 10 kts 178°
2026-05-06 16:55 41.23798 -8.67468 237 ft 12 kts 168°
2026-05-06 16:55 41.23713 -8.67447 237 ft 11 kts 168°
2026-05-06 16:55 41.23640 -8.67462 238 ft 11 kts 224°
2026-05-06 16:56 41.23620 -8.67548 236 ft 8 kts 258°
2026-05-06 16:56 41.23613 -8.67594 237 ft 0 kts 258°
2026-05-06 16:57 41.23613 -8.67598 236 ft 2 kts 258°
2026-05-06 16:57 41.23606 -8.67643 233 ft 8 kts 259°
2026-05-06 16:57 41.23592 -8.67737 231 ft 11 kts 259°
2026-05-06 16:57 41.23614 -8.67811 230 ft 10 kts 333°
2026-05-06 16:58 41.23650 -8.67823 228 ft 0 kts 348°
2026-05-06 16:58 41.23770 -8.67855 223 ft 50 kts 345°
2026-05-06 16:58 41.24311 -8.68004 215 ft 105 kts 348°
2026-05-06 16:58 41.25175 -8.68220 246 ft 142 kts 348°
2026-05-06 16:59 41.26126 -8.68445 800 ft 135 kts 347°
2026-05-06 16:59 41.27049 -8.68688 1296 ft 139 kts 348°
2026-05-06 16:59 41.27999 -8.68944 1912 ft 136 kts 346°
2026-05-06 16:59 41.28894 -8.69190 2579 ft 127 kts 346°
2026-05-06 17:00 41.29745 -8.69418 3134 ft 127 kts 347°
2026-05-06 17:00 41.30660 -8.69664 3817 ft 140 kts 346°
2026-05-06 17:00 41.31629 -8.69919 4616 ft 146 kts 347°
2026-05-06 17:00 41.32642 -8.70179 5487 ft 150 kts 347°
2026-05-06 17:01 41.33662 -8.70447 6383 ft 149 kts 347°
2026-05-06 17:01 41.34691 -8.70720 7232 ft 151 kts 347°
2026-05-06 17:01 41.35734 -8.70995 8101 ft 152 kts 346°